Flora, IL

6:13 PM CDT on March 23, 2017 (GMT -0500)
Flora Municipal

Weather History for KFOA - November, 2012

Change the Weather History Date:

Tuesday, November 6, 2012

  Actual Average (KSLO) Record (KSLO)
Temperature  
Mean Temperature 43 °F -  
Max Temperature 49 °F 55 °F 73 °F (1965)
Min Temperature 37 °F 35 °F 21 °F (1982)
Degree Days  
Heating Degree Days 22    
Moisture  
Dew Point 39 °F    
Average Humidity 86    
Maximum Humidity 99    
Minimum Humidity 61    
Precipitation  
Precipitation 0.03 in - - ()
Sea Level Pressure  
Sea Level Pressure 30.00 in    
Wind  
Wind Speed 2 mph (WSW)    
Max Wind Speed 8 mph    
Max Gust Speed -    
Visibility 7 miles    
Events Rain    
Averages and records for this station are not official NWS values.
T = Trace of Precipitation, MM = Missing Value Source: NWS Daily Summary

Daily Weather History Graph

Daily Weather History Graph

Search for Another Location

Airport or City:

Trip Planner

Search our weather history database for the weather conditions in past years. The results will help you decide how hot, cold, wet, or windy it might be!

Date:

Astronomy

Nov. 06, 2012 Rise Set
Actual Time 6:26 AM CST 4:47 PM CST
Civil Twilight 5:58 AM CST 5:15 PM CST
Nautical Twilight 5:27 AM CST 5:47 PM CST
Astronomical Twilight 4:55 AM CST 6:18 PM CST
Moon 11:25 PM CST (11/6) 12:19 PM CST (11/6)
Length of Visible Light 11h 16m
Length of Day
10h 21m
Waning Gibbous, 53% of the Moon is Illuminated
Nov 6
Waning Gibbous
Nov 6
Last Quarter
Nov 13
New
Nov 20
First Quarter
Nov 28
Full

Hourly Weather History & Observations

Time (CST) Temp. Windchill Dew Point Humidity Pressure Visibility Wind Dir Wind Speed Gust Speed Precip Events Conditions
12:15 AM 39.7 °F 37.6 °F 38.5 °F 95% 30.08 in 5.0 mi North 3.5 mph - N/A   Overcast
12:35 AM 40.3 °F - 38.7 °F 94% 30.07 in 5.0 mi Calm Calm - N/A   Overcast
12:55 AM 39.7 °F - 38.3 °F 95% 30.07 in 5.0 mi Calm Calm - N/A   Overcast
1:15 AM 40.5 °F - 39.0 °F 95% 30.07 in 5.0 mi Calm Calm - N/A   Overcast
1:35 AM 40.6 °F 38.6 °F 39.2 °F 95% 30.07 in 5.0 mi NNW 3.5 mph - N/A   Overcast
1:55 AM 40.6 °F 37.5 °F 38.7 °F 93% 30.07 in 5.0 mi NNW 4.6 mph - N/A   Overcast
2:15 AM 40.3 °F 38.2 °F 38.3 °F 93% 30.07 in 7.0 mi NNW 3.5 mph - N/A   Overcast
2:35 AM 40.3 °F 37.1 °F 38.3 °F 93% 30.07 in 5.0 mi North 4.6 mph - N/A   Overcast
2:55 AM 40.1 °F - 38.3 °F 93% 30.07 in 7.0 mi Calm Calm - N/A   Overcast
3:15 AM 40.1 °F 38.0 °F 38.1 °F 93% 30.07 in 7.0 mi North 3.5 mph - N/A   Overcast
3:35 AM 40.3 °F 38.2 °F 38.3 °F 93% 30.06 in 7.0 mi North 3.5 mph - N/A   Overcast
3:55 AM 40.1 °F - 37.9 °F 92% 30.06 in 7.0 mi Calm Calm - N/A   Overcast
4:15 AM 40.5 °F - 38.1 °F 91% 30.05 in 7.0 mi Calm Calm - N/A   Overcast
4:35 AM 40.3 °F - 37.0 °F 88% 30.04 in 7.0 mi Calm Calm - N/A   Overcast
4:55 AM 39.6 °F - 36.5 °F 89% 30.05 in 7.0 mi Calm Calm - N/A   Mostly Cloudy
5:15 AM 39.2 °F - 35.8 °F 88% 30.04 in 7.0 mi Calm Calm - N/A   Scattered Clouds
5:35 AM 37.4 °F - 35.6 °F 93% 30.05 in 7.0 mi Calm Calm - N/A   Clear
5:55 AM 37.4 °F 34.9 °F 35.2 °F 92% 30.05 in 7.0 mi NNW 3.5 mph - N/A   Scattered Clouds
6:15 AM 37.8 °F - 36.0 °F 93% 30.06 in 7.0 mi Calm Calm - N/A   Overcast
6:35 AM 38.8 °F - 36.5 °F 91% 30.06 in 5.0 mi Calm Calm - N/A   Overcast
6:55 AM 39.7 °F - 37.4 °F 91% 30.06 in 5.0 mi Calm Calm - N/A   Overcast
7:15 AM 40.3 °F - 36.9 °F 88% 30.06 in 7.0 mi Calm Calm - N/A   Overcast
7:35 AM 40.6 °F - 36.9 °F 86% 30.06 in 7.0 mi Calm Calm - N/A   Overcast
7:55 AM 41.0 °F - 36.7 °F 85% 30.06 in 7.0 mi Calm Calm - N/A   Overcast
8:15 AM 41.0 °F - 36.3 °F 83% 30.06 in 7.0 mi Calm Calm - N/A   Overcast
8:35 AM 42.1 °F - 36.7 °F 81% 30.06 in 7.0 mi Calm Calm - N/A   Overcast
8:55 AM 42.8 °F - 37.4 °F 81% 30.05 in 7.0 mi Calm Calm - N/A   Overcast
9:15 AM 42.3 °F - 36.5 °F 80% 30.05 in 10.0 mi Calm Calm - N/A   Overcast
9:35 AM 42.8 °F - 37.2 °F 81% 30.04 in 10.0 mi Calm Calm - N/A   Overcast
9:55 AM 44.1 °F 41.5 °F 37.0 °F 76% 30.04 in 7.0 mi South 4.6 mph - N/A   Overcast
10:15 AM 44.8 °F 43.3 °F 37.9 °F 77% 30.03 in 10.0 mi South 3.5 mph - N/A   Overcast
10:35 AM 45.9 °F 44.6 °F 38.5 °F 75% 30.03 in 7.0 mi SW 3.5 mph - N/A   Overcast
10:55 AM 46.9 °F - 38.7 °F 73% 30.04 in 10.0 mi WSW 3.5 mph - N/A   Overcast
11:15 AM 47.8 °F - 38.1 °F 69% 30.03 in 10.0 mi West 5.8 mph - N/A   Overcast
11:35 AM 48.2 °F - 38.1 °F 68% 30.02 in 10.0 mi West 5.8 mph - N/A   Overcast
11:55 AM 48.2 °F - 37.4 °F 66% 30.02 in 10.0 mi West 5.8 mph - N/A   Overcast
12:15 PM 48.4 °F - 37.0 °F 65% 30.00 in 10.0 mi West 6.9 mph - N/A   Overcast
12:35 PM 48.7 °F - 37.8 °F 66% 29.99 in 10.0 mi WSW 5.8 mph - N/A   Overcast
12:55 PM 48.9 °F - 37.8 °F 65% 29.97 in 10.0 mi SW 5.8 mph - N/A   Overcast
1:15 PM 48.9 °F - 36.7 °F 63% 29.97 in 10.0 mi SW 4.6 mph - N/A   Overcast
1:35 PM 48.6 °F - 36.3 °F 63% 29.95 in 10.0 mi Calm Calm - N/A   Overcast
1:55 PM 49.3 °F - 36.1 °F 61% 29.94 in 10.0 mi SSW 4.6 mph - N/A   Mostly Cloudy
2:15 PM 49.3 °F - 37.0 °F 63% 29.94 in 10.0 mi SSW 4.6 mph - N/A   Mostly Cloudy
2:35 PM 49.3 °F - 36.9 °F 62% 29.94 in 10.0 mi Calm Calm - N/A   Overcast
2:55 PM 49.5 °F - 38.3 °F 65% 29.94 in 10.0 mi South 4.6 mph - N/A   Overcast
3:15 PM 49.3 °F - 38.3 °F 66% 29.94 in 10.0 mi Calm Calm - N/A   Overcast
3:35 PM 48.9 °F - 40.3 °F 72% 29.94 in 10.0 mi Calm Calm - N/A   Drizzle
3:55 PM 48.2 °F - 41.0 °F 76% 29.95 in 7.0 mi WSW 3.5 mph - N/A Rain Light Rain
4:15 PM 46.8 °F - 41.5 °F 82% 29.95 in 7.0 mi West 5.8 mph - 0.01 in Rain Light Rain
4:35 PM 46.2 °F 43.3 °F 41.9 °F 85% 29.95 in 5.0 mi West 5.8 mph - 0.02 in Rain Light Rain
4:55 PM 45.7 °F 43.4 °F 42.3 °F 88% 29.95 in 7.0 mi West 4.6 mph - 0.02 in   Drizzle
5:15 PM 45.0 °F 43.5 °F 42.6 °F 91% 29.95 in 7.0 mi WSW 3.5 mph - 0.01 in   Drizzle
5:35 PM 44.8 °F - 42.8 °F 93% 29.95 in 5.0 mi Calm Calm - 0.01 in   Light Drizzle
5:55 PM 44.6 °F - 43.2 °F 95% 29.95 in 5.0 mi Calm Calm - 0.01 in   Light Drizzle
6:15 PM 44.6 °F 43.1 °F 43.3 °F 95% 29.95 in 5.0 mi SSW 3.5 mph - N/A   Drizzle
6:35 PM 44.6 °F 43.1 °F 43.3 °F 95% 29.95 in 5.0 mi SSW 3.5 mph - N/A   Light Drizzle
6:55 PM 44.4 °F 42.9 °F 43.0 °F 95% 29.95 in 3.0 mi SW 3.5 mph - N/A Rain Rain
7:15 PM 44.1 °F 42.5 °F 43.0 °F 96% 29.95 in 2.5 mi SW 3.5 mph - N/A   Drizzle
7:35 PM 44.1 °F 41.5 °F 43.3 °F 97% 29.95 in 2.0 mi SSW 4.6 mph - N/A   Drizzle
7:55 PM 44.1 °F 41.5 °F 43.3 °F 97% 29.94 in 2.5 mi SSW 4.6 mph - N/A   Drizzle
8:15 PM 44.1 °F 41.5 °F 43.7 °F 99% 29.94 in 2.0 mi South 4.6 mph - N/A   Light Drizzle
8:35 PM 44.2 °F 42.7 °F 43.7 °F 98% 29.94 in 3.0 mi SSW 3.5 mph - N/A   Overcast
8:55 PM 44.6 °F 42.2 °F 43.9 °F 97% 29.94 in 3.0 mi SSW 4.6 mph - N/A   Overcast
9:15 PM 44.6 °F 43.1 °F 44.1 °F 98% 29.94 in 4.0 mi SSW 3.5 mph - N/A   Overcast
9:35 PM 44.8 °F 43.3 °F 44.2 °F 98% 29.94 in 4.0 mi SW 3.5 mph - N/A   Mostly Cloudy
9:55 PM 44.6 °F 43.1 °F 44.1 °F 98% 29.93 in 3.0 mi SW 3.5 mph - N/A   Overcast
10:15 PM 45.0 °F 42.6 °F 44.6 °F 99% 29.93 in 3.0 mi WSW 4.6 mph - N/A   Overcast
10:35 PM 45.1 °F 41.4 °F 44.6 °F 98% 29.93 in 4.0 mi West 6.9 mph - N/A   Mostly Cloudy
10:55 PM 45.5 °F 41.3 °F 44.6 °F 97% 29.92 in 5.0 mi WNW 8.1 mph - N/A   Overcast
11:15 PM 45.0 °F 41.8 °F 43.3 °F 94% 29.92 in 7.0 mi WNW 5.8 mph - N/A   Mostly Cloudy
11:35 PM 44.8 °F 41.6 °F 43.0 °F 93% 29.92 in 7.0 mi West 5.8 mph - N/A   Mostly Cloudy
11:55 PM 43.5 °F 39.4 °F 41.9 °F 94% 29.92 in 7.0 mi West 6.9 mph - N/A   Scattered Clouds